Regional Weather Roundup
Issued by NWS

Home | Current Version | Previous Version | Text Only | Print | Product List | Glossary Off
Versions: 1 2 3 4 5 6 7 8 9 10 11 12 13 14 15 16 17 18 19 20 21 22 23 24 25 26 27 28 29 30 31 32 33 34 35 36 37 38 39 40 41 42 43 44 45 46 47 48 49 50

000
ASUS43 KDTX 010010
RWRMI
MICHIGAN HOURLY REGIONAL WEATHER ROUNDUP
NATIONAL WEATHER SERVICE DETROIT/PONTIAC MI
800 PM EDT FRI JUL 31 2015

NOTE: "FAIR" INDICATES FEW OR NO CLOUDS BELOW 12,000 FEET WITH NO
SIGNIFICANT WEATHER AND/OR OBSTRUCTION TO VISIBILITY.

MIZ047>049-052>055-059>063-066>070-074>076-081>083-010100-
SOUTHEAST LOWER MICHIGAN

CITY           SKY/WX    TMP DP  RH WIND       PRES   REMARKS
ADRIAN         PTCLDY    79  56  45 NW14G21   29.89S
6HR MIN TEMP:  78; 6HR MAX TEMP:  85;

ALMA           CLEAR     77  51  40 W10       29.86R
ANN ARBOR      CLEAR     78  51  38 NW9       29.87R
BAD AXE        PTCLDY    75  59  57 W5        29.81S
6HR MIN TEMP:  73; 6HR MAX TEMP:  82;

CARO           PTCLDY    78  57  47 W7        29.82R
DETROIT CITY   CLEAR     82  49  31 W16G25    29.83R
6HR MIN TEMP:  82; 6HR MAX TEMP:  88;

DETROIT        PTCLDY    81  48  31 W17G25    29.85R
6HR MIN TEMP:  81; 6HR MAX TEMP:  88;

FLINT          MOCLDY    80  54  40 W10       29.85R
6HR MIN TEMP:  80; 6HR MAX TEMP:  88;

GROSSE ILE     CLEAR     81  48  32 W9G20     29.83S
HILLSDALE      CLEAR     78  52  41 NW13      29.91S
HOWELL         CLEAR     77  47  34 W10G17    29.87R
6HR MIN TEMP:  77; 6HR MAX TEMP:  86;


CITY           SKY/WX    TMP DP  RH WIND       PRES   REMARKS
JACKSON        CLEAR     76  51  41 W15G21    29.89S
6HR MIN TEMP:  76; 6HR MAX TEMP:  83;

LAMBERTVILLE   CLEAR     81  54  38 W6        29.88R
6HR MIN TEMP:  81; 6HR MAX TEMP:  87;

LANSING        CLEAR     78  53  41 W14       29.88S
6HR MIN TEMP:  78; 6HR MAX TEMP:  86;

LAPEER         FAIR      78  53  41 W12G20    29.83S
MASON          CLEAR     75  49  39 W8        29.89R
MONROE         CLEAR     79  54  42 W8        29.85R
6HR MIN TEMP:  79; 6HR MAX TEMP:  87;

MT. CLEMENS    PTCLDY    81  51  34 W13G23    29.80S
6HR MIN TEMP:  78; 6HR MAX TEMP:  85; 6HR PCP:  0.01;

PONTIAC        PTCLDY    79  50  36 W20       29.85R
6HR MIN TEMP:  76; 6HR MAX TEMP:  85; 6HR PCP:  0.01;

PORT HOPE        N/A     71  65  81 W3        29.78R
6HR MIN TEMP:  67; 6HR MAX TEMP:  83; 6HR PCP:  0.10;

PORT HURON     CLEAR     79  54  41 W5        29.81R
TRI CITIES     CLEAR     79  52  38 NW15      29.84R
6HR MIN TEMP:  79; 6HR MAX TEMP:  87;

MIDLAND        FAIR      79  50  36 W8        29.83R
6HR MIN TEMP:  79; 6HR MAX TEMP:  85;

TROY           CLEAR     82  51  34 W9G18     29.85S
SAGINAW HB     CLEAR     79  50  36 W14       29.83R
$$
MIZ043>046-050>051-056>058-064>065-071>073-077>080-010100-
SOUTHWEST LOWER MICHIGAN

CITY           SKY/WX    TMP DP  RH WIND       PRES   REMARKS
BATTLE CREEK   CLEAR     78  52  40 NW9       29.92R
6HR MIN TEMP:  78; 6HR MAX TEMP:  86;

BENTON HARBOR  SUNNY     75  58  55 NW6       29.92F
6HR MIN TEMP:  75; 6HR MAX TEMP:  84;

BIG RAPIDS     MOSUNNY   74  49  41 NW5       29.87S
6HR MIN TEMP:  74; 6HR MAX TEMP:  83;

COLDWATER      CLEAR     76  49  37 NW9       29.91S
6HR MIN TEMP:  76; 6HR MAX TEMP:  83;

FREMONT        FAIR      77  47  35 W7        29.88S
HOLLAND        SUNNY     77  55  46 W7        29.91F
6HR MIN TEMP:  77; 6HR MAX TEMP:  83;

GRAND RAPIDS   MOSUNNY   78  50  37 W13       29.89S
6HR MIN TEMP:  78; 6HR MAX TEMP:  85;

IONIA          FAIR      78  51  39 W13G21    29.88R
6HR MIN TEMP:  78; 6HR MAX TEMP:  85;

KALAMAZOO      SUNNY     78  50  37 NW15G22   29.91S
6HR MIN TEMP:  78; 6HR MAX TEMP:  86;

LUDINGTON      PTSUNNY   76  62  60 W6        29.88R
6HR MIN TEMP:  76; 6HR MAX TEMP:  81;

MARSHALL       CLEAR     77  49  38 NW13G18   29.90S
MOUNT PLEASANT CLEAR     80  51  36 W8        29.85R
6HR MIN TEMP:  79; 6HR MAX TEMP:  88;

MUSKEGON       MOSUNNY   77  57  50 W9        29.89S
6HR MIN TEMP:  77; 6HR MAX TEMP:  83;

SOUTH HAVEN    SUNNY     75  58  54 NW3       29.92S
$$
MIZ016>042-010100-
NORTHERN LOWER MICHIGAN

CITY           SKY/WX    TMP DP  RH WIND       PRES   REMARKS
ALPENA         CLOUDY    65  56  72 W5        29.81R
6HR MIN TEMP:  65; 6HR MAX TEMP:  83; 6HR PCP:  0.03;

BEAVER ISLAND  MOSUNNY   70  58  66 W3        29.84R
6HR MIN TEMP:  66; 6HR MAX TEMP:  77;

BELLAIRE       MOSUNNY   74  53  48 NW5       29.84S
6HR MIN TEMP:  73; 6HR MAX TEMP:  78;

CADILLAC       MOSUNNY   69  56  64 W7        29.88R
CHARLEVOIX     MOSUNNY   69  58  68 W7        29.87S
6HR MIN TEMP:  65; 6HR MAX TEMP:  77;

FRANKFORT      PTSUNNY   72  61  67 W6        29.86F
GAYLORD        MOSUNNY   69  54  58 W7        29.86S
6HR MIN TEMP:  65; 6HR MAX TEMP:  78; 6HR PCP:  0.02;

GRAYLING       MOSUNNY   73  51  44 W10       29.86R
6HR MIN TEMP:  73; 6HR MAX TEMP:  82;

HARBOR SPRINGS PTSUNNY   69  58  67 W5        29.83S
HOUGHTON LAKE  CLOUDY    68  61  78 N8        29.87R
6HR MIN TEMP:  65; 6HR MAX TEMP:  81; 6HR PCP:  0.07;

MANISTEE       CLOUDY    66  57  72 NW7       29.90R
OSCODA         MOCLDY    75  50  40 NW9       29.81R
PELLSTON       MOSUNNY   71  55  56 NW13      29.84R
6HR MIN TEMP:  71; 6HR MAX TEMP:  80;

ROGERS CITY    CLOUDY    73  52  46 W8        29.81R
TRAVERSE CITY  MOSUNNY   77  52  41 NW12      29.83S
6HR MIN TEMP:  77; 6HR MAX TEMP:  84;

$$
MIZ007>008-015-010100-
EASTERN UPPER MICHIGAN

CITY           SKY/WX    TMP DP  RH WIND       PRES   REMARKS
KINROSS        MOSUNNY   66  55  68 NW14G22   29.82R
6HR MIN TEMP:  66; 6HR MAX TEMP:  75;

MACKINAC ISLAN   N/A     69  54  58 NW10G17   29.81R
NEWBERRY       SUNNY     67  54  61 NW7       29.82F
6HR MIN TEMP:  67; 6HR MAX TEMP:  77;

S. S. MARIE    SUNNY     63  55  75 W9        29.81S
6HR MIN TEMP:  63; 6HR MAX TEMP:  69;

MUNISING         N/A     71  56  58 N8        29.83F
6HR MIN TEMP:  70; 6HR MAX TEMP:  73;

$$
MIZ004>006-011>014-085-010100-
CENTRAL UPPER MICHIGAN

CITY           SKY/WX    TMP DP  RH WIND       PRES   REMARKS
MANISTIQUE     SUNNY     70  54  56 N10G17    29.83S
ESCANABA       SUNNY     75  50  41 NW12      29.83S
6HR MIN TEMP:  72; 6HR MAX TEMP:  81;

MENOMINEE      PTSUNNY   75  52  43 NW9       29.86R
6HR MIN TEMP:  75; 6HR MAX TEMP:  81;

SAWYER-GWINN   MOSUNNY   73  48  40 NW15      29.86S
$$
MIZ001>003-009>011-084-010100-
WESTERN UPPER MICHIGAN

CITY           SKY/WX    TMP DP  RH WIND       PRES   REMARKS
IRON MOUNTAIN  MOSUNNY   71  54  54 NW14      29.87F
6HR MIN TEMP:  68; 6HR MAX TEMP:  79; 6HR PCP:  0.03;

HOUGHTON       MOSUNNY   66  53  63 W17G24    29.84F
6HR MIN TEMP:  66; 6HR MAX TEMP:  73;

COPPER HARBOR    N/A     71  53  52 NW14G23   29.81S
6HR MIN TEMP:  68; 6HR MAX TEMP:  73;

IRONWOOD       PTSUNNY   66  57  72 SW8       29.88F
6HR MIN TEMP:  61; 6HR MAX TEMP:  73;

$$

ABBREVIATIONS USED IN REMARKS
   TC - TEMPERATURE IN CELSIUS
  WCI - WIND CHILL INDEX
   HX - HEAT INDEX
  VSB - VISIBILITY



USA.gov is the U.S. government's official web portal to all federal, state and local government web resources and services.